Location: Unspecified
(0.0000°N, 0.0000°E)
Time: 10:29:48
(UTC+00:00)

Vanguard 2 - Pass Details

Date: 11 October 2022
Orbit: 553 x 2933 km, 32.9° (Epoch: 29 November)

Event Time Altitude Azimuth Distance (km) Brightness Sun altitude
Rises 19:36:25 0° 292° (WNW) 6,632 13.2 -27.2°
Reaches altitude 10° 19:40:54 10° 288° (WNW) 5,718 12.7 -28.3°
Maximum altitude 19:58:02 52° 217° (SW) 3,214 10.7 -32.5°
Enters shadow 20:10:18 15° 146° (SSE) 4,366 11.1 -35.6°
